"Pseudo-MPEC" for ZTF10FZ

Created 2026 Aug 22 22:35:18 UT using Find_Orb

Click here for an explanation of pseudo-MPECs

 
 Astrometry: 
     ZTF10FZ*0C2026 08 22.29899920 55 46.401+10 30 58.44   ~8MEo 18.70RUNEOCPI41
     ZTF10FZ 0C2026 08 22.29934620 55 47.894+10 30 52.93   ~8MEo 18.70RUNEOCPI41
     ZTF10FZ 0C2026 08 22.36425421 00 12.733+10 12 09.83   ~8MEo 19.01gUNEOCPI41
     ZTF10FZ 0C2026 08 22.36460421 00 14.129+10 12 04.59   ~8MEo 19.01gUNEOCPI41
     ZTF10FZ 1C2026 08 22.87700321 33 28.23 +07 49 55.1    ~8MLZ 18.9 GVNEOCPK88
     ZTF10FZ 1C2026 08 22.87803221 33 31.70 +07 49 38.9    ~8MLZ 18.9 GVNEOCPK88
     ZTF10FZ 1C2026 08 22.87905521 33 35.19 +07 49 22.5    ~8MLZ 19.1 GVNEOCPK88
     ZTF10FZ KC2026 08 22.91479 21 35 38.68 +07 40 31.6    ~8MMZ 18.1 GVNEOCP104
     ZTF10FZ KB2026 08 22.91742121 35 47.728+07 39 51.60   ~8MMZ 19.41GXNEOCPK78
     ZTF10FZ KC2026 08 22.91744 21 35 47.50 +07 39 51.3    ~8MMZ 18.2 GVNEOCP104
     ZTF10FZ KB2026 08 22.92074221 35 58.737+07 38 59.94   ~8MMZ 19.22GXNEOCPK78
     ZTF10FZ 0C2026 08 22.92220321 36 06.703+07 37 48.76   ~8MMZ 18.7 GWNEOCPJ95
     ZTF10FZ KB2026 08 22.92406521 36 09.759+07 38 08.84   ~8MMZ 19.51GXNEOCPK78
     ZTF10FZ 0C2026 08 22.92424421 36 13.522+07 37 18.34   ~8MMZ 18.9 GWNEOCPJ95
     ZTF10FZ 0C2026 08 22.92623821 36 20.191+07 36 47.27   ~8MMZ 18.9 GWNEOCPJ95
     ZTF10FZ 0C2026 08 22.92824321 36 26.837+07 36 16.38   ~8MMZ 18.7 GWNEOCPJ95

Station data:
(104) San Marcello Pistoiese  (N44.064178 E10.803750)  Italy.  Observers P.
   Bacci, M. Maestripieri. Measurers P. Bacci, L. Tesi, G. Fagioli. 0.60-m
   reflector + CCD.
(I41) Palomar Mountain--ZTF  (N33.357336 W116.859780)  US/California.
   Observers B. T. Bolin, Z. T. F. Collaboration. Measurers B. T. Bolin,
   Z.-Y. Lin, F. J. Masci. 1.2-m f/2.4 Schmidt.
(J95) Great Shefford  (N51.474969 W1.447003)  UK/England.  Observer P.
   Birtwhistle. 0.41-m f/6.3 Schmidt-Cassegrain + CCD.
(K78) iota Scorpii Observatory, La Spezia  (N44.126274 E9.853560)  Italy.
   Observers G. Scarfi, L. Sannino, L. Bertagna, F. Francini. Measurers G.
   Scarfi, L. Sannino. 0.40-m f/6 reflector + CCD.
(K88) GINOP-KHK, Piszkéstető  (N47.917453 E19.893670)  Hungary.  Observer K.
   Sárneczky. 0.60-m Schmidt + CCD.

Orbital elements:  ZTF10FZ
   Perihelion 2026 Jul 30.590793 +/- 0.0368 TT = 14:10:44.4 (JD 2461252.090793)
Epoch 2026 Aug 23.0 TT = JDT 2461275.5   Earth MOID: 0.0125   Ma: 0.0533
M   6.102549659 +/- 0.08            (J2000 ecliptic)             AutoNEOCP
n   0.260690145 +/- 0.00311         Peri.  146.107896 +/- 0.039
a   2.426906098 +/- 0.0193          Node   154.376084 +/- 0.006
e   0.59585519 +/- 0.00324          Incl.    4.327894 +/- 0.020
P   3.78076                H 26.66  G  0.15   U  8.9
q 0.980821482 +/- 0.000128    Q 3.872990714 +/- 0.0387
From 16 observations 2026 Aug. 22 (15.1 hr); mean residual 0".37
Residuals in arcseconds: 
260822 I41  .19-  .23-    260822 K88  .53+  .34-    260822 K78  .02-  .03+    
260822 I41  .77+  .24+    260822 104  .50+  .75-    260822 J95  .09-  .50+    
260822 I41  .20-  .41-    260822 K78  .23-  .38+    260822 J95  .31+  .05+    
260822 I41  .52-  .41+    260822 104  .83+  .16-    260822 J95  .09-  .07-    
260822 K88  .16+  .35+    260822 K78  .29-  .07-    
260822 K88  .04+  .15+    260822 J95  .30-  .42-    

Ephemerides (geocentric):
Date (UTC) HH   RA             Dec           delta  r     elong  mag " sig PA
---- --------  ------------   ------------  ------ ------ -----  --- --------
2026 08 22 23  21 38 02.895   +07 33 57.89  .01886 1.0290 159.5 19.1 1.69 155
2026 08 23 00  21 40 23.475   +07 23 21.54  .01900 1.0292 159.9 19.1 1.92 148
2026 08 23 01  21 42 41.844   +07 12 51.96  .01914 1.0293 160.2 19.1 2.19 143
2026 08 23 02  21 44 58.024   +07 02 29.25  .01929 1.0295 160.6 19.1 2.49 138
2026 08 23 03  21 47 12.041   +06 52 13.51  .01944 1.0297 160.9 19.1 2.81 135
2026 08 23 04  21 49 23.921   +06 42 04.83  .01959 1.0298 161.2 19.1 3.16 132
2026 08 23 05  21 51 33.691   +06 32 03.26  .01974 1.0300 161.5 19.1 3.53 129
2026 08 23 06  21 53 41.379   +06 22 08.86  .01989 1.0302 161.8 19.1 3.91 127
2026 08 23 07  21 55 47.011   +06 12 21.68  .02005 1.0303 162.0 19.2 4.32 125
2026 08 23 08  21 57 50.618   +06 02 41.74  .02021 1.0305 162.3 19.2 4.74 124
2026 08 23 09  21 59 52.227   +05 53 09.06  .02037 1.0307 162.5 19.2 5.17 123
2026 08 23 10  22 01 51.868   +05 43 43.67  .02053 1.0308 162.7 19.2 5.61 122
2026 08 23 11  22 03 49.571   +05 34 25.56  .02069 1.0310 162.9 19.2 6.07 121
2026 08 23 12  22 05 45.364   +05 25 14.72  .02086 1.0312 163.1 19.2 6.53 120
2026 08 23 13  22 07 39.279   +05 16 11.14  .02102 1.0313 163.3 19.2 7.01 119
2026 08 23 14  22 09 31.344   +05 07 14.81  .02119 1.0315 163.4 19.2 7.49 119
2026 08 23 15  22 11 21.590   +04 58 25.68  .02136 1.0317 163.6 19.2 7.97 118
2026 08 23 16  22 13 10.046   +04 49 43.73  .02153 1.0318 163.7 19.3 8.47 117
2026 08 23 17  22 14 56.742   +04 41 08.92  .02170 1.0320 163.9 19.3 8.97 117
2026 08 23 18  22 16 41.709   +04 32 41.20  .02188 1.0322 164.0 19.3 9.47 117
2026 08 23 19  22 18 24.975   +04 24 20.52  .02205 1.0324 164.1 19.3 9.98 116
2026 08 23 20  22 20 06.569   +04 16 06.82  .02223 1.0325 164.2 19.3 10.5 116
2026 08 23 21  22 21 46.522   +04 08 00.06  .02241 1.0327 164.2 19.3 11.0 116
2026 08 23 22  22 23 24.862   +04 00 00.15  .02259 1.0329 164.3 19.3 11.5 115
2026 08 23 23  22 25 01.617   +03 52 07.05  .02277 1.0330 164.4 19.4 12.0 115
2026 08 24 00  22 26 36.817   +03 44 20.68  .02295 1.0332 164.4 19.4 12.6 115
2026 08 24 01  22 28 10.488   +03 36 40.97  .02313 1.0334 164.5 19.4 13.1 115
2026 08 24 02  22 29 42.660   +03 29 07.84  .02332 1.0336 164.5 19.4 13.6 114
2026 08 24 03  22 31 13.358   +03 21 41.22  .02350 1.0337 164.5 19.4 14.1 114
2026 08 24 04  22 32 42.611   +03 14 21.03  .02369 1.0339 164.5 19.4 14.6 114
2026 08 24 05  22 34 10.445   +03 07 07.19  .02387 1.0341 164.5 19.5 15.1 114
2026 08 24 06  22 35 36.886   +02 59 59.63  .02406 1.0342 164.5 19.5 15.7 114
2026 08 24 07  22 37 01.960   +02 52 58.26  .02425 1.0344 164.5 19.5 16.2 114
2026 08 24 08  22 38 25.693   +02 46 02.99  .02444 1.0346 164.5 19.5 16.7 113
2026 08 24 09  22 39 48.110   +02 39 13.75  .02463 1.0348 164.5 19.5 17.2 113
2026 08 24 10  22 41 09.236   +02 32 30.44  .02483 1.0349 164.5 19.5 17.7 113
2026 08 24 11  22 42 29.094   +02 25 52.99  .02502 1.0351 164.5 19.6 18.2 113
2026 08 24 12  22 43 47.710   +02 19 21.32  .02521 1.0353 164.4 19.6 18.7 113
2026 08 24 13  22 45 05.106   +02 12 55.33  .02541 1.0355 164.4 19.6 19.2 113
2026 08 24 14  22 46 21.306   +02 06 34.94  .02561 1.0356 164.3 19.6 19.7 113
2026 08 24 15  22 47 36.332   +02 00 20.07  .02580 1.0358 164.3 19.6 20.2 113
2026 08 24 16  22 48 50.206   +01 54 10.63  .02600 1.0360 164.2 19.7 20.7 113
2026 08 24 17  22 50 02.952   +01 48 06.54  .02620 1.0362 164.2 19.7 21.2 113
2026 08 24 18  22 51 14.588   +01 42 07.72  .02640 1.0363 164.1 19.7 21.7 113
2026 08 24 19  22 52 25.138   +01 36 14.07  .02660 1.0365 164.0 19.7 22.2 112
2026 08 24 20  22 53 34.622   +01 30 25.53  .02680 1.0367 164.0 19.7 22.7 112
2026 08 24 21  22 54 43.060   +01 24 42.01  .02700 1.0369 163.9 19.8 23.2 112
2026 08 24 22  22 55 50.471   +01 19 03.42  .02721 1.0370 163.8 19.8 23.6 112